Time,TemperatureF,DewpointF,PressureIn,WindDirection,WindDirectionDegrees,WindSpeedMPH,WindSpeedGustMPH,Humidity,HourlyPrecipIn,Conditions,Clouds,dailyrainin,SoftwareType,DateUTC
2013-11-10 00:00:00,43.7,40.1,30.02,NE,51,0.0,0.0,87,0.00,,---,0.00,VWS V14.01,2013-11-10 08:00:00,
2013-11-10 00:01:00,45.5,41.6,30.01,NE,51,0.0,0.0,86,0.00,,---,0.00,VWS V14.01,2013-11-10 08:01:00,
2013-11-10 00:06:00,45.3,41.4,30.01,NE,51,0.0,0.0,86,0.00,,---,0.00,VWS V14.01,2013-11-10 08:06:00,
2013-11-10 00:10:00,43.4,40.1,30.02,NE,51,0.0,1.0,88,0.00,,---,0.00,VWS V14.01,2013-11-10 08:10:00,
2013-11-10 00:11:00,45.0,41.1,30.02,NE,51,0.0,0.0,86,0.00,,---,0.00,VWS V14.01,2013-11-10 08:11:00,
2013-11-10 00:16:00,45.0,41.4,30.02,NE,51,0.0,0.0,87,0.00,,---,0.00,VWS V14.01,2013-11-10 08:16:00,
2013-11-10 00:20:00,43.2,39.9,30.02,NE,53,0.0,1.0,88,0.00,,---,0.00,VWS V14.01,2013-11-10 08:20:00,
2013-11-10 00:21:00,44.8,41.2,30.02,NE,51,0.0,0.0,87,0.00,,---,0.00,VWS V14.01,2013-11-10 08:21:00,
2013-11-10 00:26:00,44.7,41.1,30.02,NE,51,0.0,0.0,87,0.00,,---,0.00,VWS V14.01,2013-11-10 08:26:00,
2013-11-10 00:30:00,42.9,39.6,30.01,NE,53,0.0,0.0,88,0.00,,---,0.00,VWS V14.01,2013-11-10 08:30:00,
2013-11-10 00:31:00,44.6,41.0,30.02,NE,51,0.0,0.0,87,0.00,,---,0.00,VWS V14.01,2013-11-10 08:31:00,
2013-11-10 00:36:00,44.5,40.9,30.02,NE,51,0.0,0.0,87,0.00,,---,0.00,VWS V14.01,2013-11-10 08:36:00,
2013-11-10 00:40:00,42.8,39.5,30.01,NE,53,0.0,0.0,88,0.00,,---,0.00,VWS V14.01,2013-11-10 08:40:00,
2013-11-10 00:41:00,44.3,40.7,30.03,NE,51,0.0,0.0,87,0.00,,---,0.00,VWS V14.01,2013-11-10 08:41:00,
2013-11-10 00:46:00,44.1,40.5,30.03,NE,51,0.0,0.0,87,0.00,,---,0.00,VWS V14.01,2013-11-10 08:46:00,
2013-11-10 00:50:00,42.6,39.6,30.01,NE,53,0.0,0.0,89,0.00,,---,0.00,VWS V14.01,2013-11-10 08:50:00,
2013-11-10 00:51:00,44.0,40.7,30.03,NE,51,0.0,0.0,88,0.00,,---,0.00,VWS V14.01,2013-11-10 08:51:00,
2013-11-10 00:56:00,43.8,40.5,30.02,NE,51,0.0,0.0,88,0.00,,---,0.00,VWS V14.01,2013-11-10 08:56:00,
2013-11-10 01:00:00,42.6,39.6,30.01,NE,53,0.0,0.0,89,0.00,,---,0.00,VWS V14.01,2013-11-10 09:00:00,
2013-11-10 01:01:00,43.7,40.1,30.02,NE,51,0.0,0.0,87,0.00,,---,0.00,VWS V14.01,2013-11-10 09:01:00,
2013-11-10 01:06:00,43.5,40.2,30.02,NE,51,0.0,0.0,88,0.00,,---,0.00,VWS V14.01,2013-11-10 09:06:00,
2013-11-10 01:10:00,42.6,39.6,30.01,NE,53,0.0,0.0,89,0.00,,---,0.00,VWS V14.01,2013-11-10 09:10:00,
2013-11-10 01:11:00,43.4,40.1,30.02,NE,51,0.0,0.0,88,0.00,,---,0.00,VWS V14.01,2013-11-10 09:11:00,
2013-11-10 01:16:00,43.2,39.9,30.02,NE,53,0.0,1.0,88,0.00,,---,0.00,VWS V14.01,2013-11-10 09:16:00,
2013-11-10 01:20:00,42.7,40.0,30.01,NE,53,0.0,0.0,90,0.00,,---,0.00,VWS V14.01,2013-11-10 09:20:00,
2013-11-10 01:21:00,43.2,39.9,30.01,NE,53,0.0,0.0,88,0.00,,---,0.00,VWS V14.01,2013-11-10 09:21:00,
2013-11-10 01:26:00,43.1,39.8,30.01,NE,53,0.0,0.0,88,0.00,,---,0.00,VWS V14.01,2013-11-10 09:26:00,
2013-11-10 01:30:00,43.1,40.4,30.02,NE,53,0.0,0.0,90,0.00,,---,0.00,VWS V14.01,2013-11-10 09:30:00,
2013-11-10 01:31:00,42.9,39.6,30.01,NE,53,0.0,0.0,88,0.00,,---,0.00,VWS V14.01,2013-11-10 09:31:00,
2013-11-10 01:36:00,42.9,39.6,30.01,NE,53,0.0,0.0,88,0.00,,---,0.00,VWS V14.01,2013-11-10 09:36:00,
2013-11-10 01:40:00,43.3,40.6,30.02,NE,53,0.0,0.0,90,0.00,,---,0.00,VWS V14.01,2013-11-10 09:40:00,
2013-11-10 01:41:00,42.7,39.4,30.01,NE,53,0.0,0.0,88,0.00,,---,0.00,VWS V14.01,2013-11-10 09:41:00,
2013-11-10 01:46:00,42.7,39.7,30.01,NE,53,0.0,0.0,89,0.00,,---,0.00,VWS V14.01,2013-11-10 09:46:00,
2013-11-10 01:50:00,43.6,40.9,30.02,NE,53,0.0,0.0,90,0.00,,---,0.00,VWS V14.01,2013-11-10 09:50:00,
2013-11-10 01:51:00,42.6,39.6,30.01,NE,53,0.0,0.0,89,0.00,,---,0.00,VWS V14.01,2013-11-10 09:51:00,
2013-11-10 01:56:00,42.6,39.6,30.01,NE,53,0.0,0.0,89,0.00,,---,0.00,VWS V14.01,2013-11-10 09:56:00,
2013-11-10 02:00:00,43.6,40.9,30.02,NE,53,0.0,0.0,90,0.00,,---,0.00,VWS V14.01,2013-11-10 10:00:00,
2013-11-10 02:01:00,42.6,39.6,30.01,NE,53,0.0,0.0,89,0.00,,---,0.00,VWS V14.01,2013-11-10 10:01:00,
2013-11-10 02:06:00,42.6,39.6,30.01,NE,53,0.0,0.0,89,0.00,,---,0.00,VWS V14.01,2013-11-10 10:06:00,
2013-11-10 02:10:00,43.5,40.8,30.02,NE,53,0.0,0.0,90,0.00,,---,0.00,VWS V14.01,2013-11-10 10:10:00,
2013-11-10 02:11:00,42.6,39.6,30.01,NE,53,0.0,0.0,89,0.00,,---,0.00,VWS V14.01,2013-11-10 10:11:00,
2013-11-10 02:16:00,42.7,40.0,30.01,NE,53,0.0,0.0,90,0.00,,---,0.00,VWS V14.01,2013-11-10 10:16:00,
2013-11-10 02:20:00,43.4,40.7,30.02,NE,53,0.0,0.0,90,0.00,,---,0.00,VWS V14.01,2013-11-10 10:20:00,
2013-11-10 02:21:00,42.7,40.0,30.01,NE,53,0.0,0.0,90,0.00,,---,0.00,VWS V14.01,2013-11-10 10:21:00,
2013-11-10 02:26:00,42.9,40.2,30.01,NE,53,0.0,0.0,90,0.00,,---,0.00,VWS V14.01,2013-11-10 10:26:00,
2013-11-10 02:30:00,43.3,40.6,30.02,NE,53,0.0,0.0,90,0.00,,---,0.00,VWS V14.01,2013-11-10 10:30:00,
2013-11-10 02:31:00,43.1,40.4,30.02,NE,53,0.0,0.0,90,0.00,,---,0.00,VWS V14.01,2013-11-10 10:31:00,
2013-11-10 02:36:00,43.2,40.5,30.02,NE,53,0.0,0.0,90,0.00,,---,0.00,VWS V14.01,2013-11-10 10:36:00,
2013-11-10 02:40:00,43.1,40.1,30.02,NE,53,0.0,0.0,89,0.00,,---,0.00,VWS V14.01,2013-11-10 10:40:00,
2013-11-10 02:41:00,43.3,40.6,30.02,NE,53,0.0,0.0,90,0.00,,---,0.00,VWS V14.01,2013-11-10 10:41:00,
2013-11-10 02:46:00,43.5,40.8,30.02,NE,53,0.0,0.0,90,0.00,,---,0.00,VWS V14.01,2013-11-10 10:46:00,
2013-11-10 02:50:00,42.9,40.2,30.02,NE,53,0.0,1.0,90,0.00,,---,0.00,VWS V14.01,2013-11-10 10:50:00,
2013-11-10 02:51:00,43.6,40.9,30.02,NE,53,0.0,0.0,90,0.00,,---,0.00,VWS V14.01,2013-11-10 10:51:00,
2013-11-10 02:56:00,43.6,40.9,30.02,NE,53,0.0,0.0,90,0.00,,---,0.00,VWS V14.01,2013-11-10 10:56:00,
2013-11-10 03:00:00,42.8,40.1,30.02,NE,53,0.0,0.0,90,0.00,,---,0.00,VWS V14.01,2013-11-10 11:00:00,
2013-11-10 03:01:00,43.6,40.9,30.02,NE,53,0.0,0.0,90,0.00,,---,0.00,VWS V14.01,2013-11-10 11:01:00,
2013-11-10 03:06:00,43.6,40.9,30.02,NE,53,0.0,0.0,90,0.00,,---,0.00,VWS V14.01,2013-11-10 11:06:00,
2013-11-10 03:10:00,42.5,39.8,30.02,NE,53,0.0,0.0,90,0.00,,---,0.00,VWS V14.01,2013-11-10 11:10:00,
2013-11-10 03:11:00,43.6,40.9,30.02,NE,53,0.0,0.0,90,0.00,,---,0.00,VWS V14.01,2013-11-10 11:11:00,
2013-11-10 03:16:00,43.5,40.8,30.02,NE,53,0.0,0.0,90,0.00,,---,0.00,VWS V14.01,2013-11-10 11:16:00,
2013-11-10 03:20:00,42.3,39.6,30.03,NE,53,0.0,0.0,90,0.00,,---,0.00,VWS V14.01,2013-11-10 11:20:00,
2013-11-10 03:21:00,43.4,40.7,30.02,NE,53,0.0,0.0,90,0.00,,---,0.00,VWS V14.01,2013-11-10 11:21:00,
2013-11-10 03:26:00,43.4,40.7,30.02,NE,53,0.0,0.0,90,0.00,,---,0.00,VWS V14.01,2013-11-10 11:26:00,
2013-11-10 03:30:00,42.1,39.4,30.03,NE,53,0.0,0.0,90,0.00,,---,0.00,VWS V14.01,2013-11-10 11:30:00,
2013-11-10 03:31:00,43.3,40.6,30.02,NE,53,0.0,0.0,90,0.00,,---,0.00,VWS V14.01,2013-11-10 11:31:00,
2013-11-10 03:36:00,43.2,40.5,30.02,NE,53,0.0,0.0,90,0.00,,---,0.00,VWS V14.01,2013-11-10 11:36:00,
2013-11-10 03:40:00,42.0,39.3,30.03,NE,53,0.0,0.0,90,0.00,,---,0.00,VWS V14.01,2013-11-10 11:40:00,
2013-11-10 03:41:00,43.1,40.1,30.02,NE,53,0.0,0.0,89,0.00,,---,0.00,VWS V14.01,2013-11-10 11:41:00,
2013-11-10 03:46:00,42.9,40.2,30.02,NE,53,0.0,0.0,90,0.00,,---,0.00,VWS V14.01,2013-11-10 11:46:00,
2013-11-10 03:50:00,42.0,39.6,30.04,NE,53,0.0,0.0,91,0.00,,---,0.00,VWS V14.01,2013-11-10 11:50:00,
2013-11-10 03:51:00,42.9,40.2,30.02,NE,53,0.0,1.0,90,0.00,,---,0.00,VWS V14.01,2013-11-10 11:51:00,
2013-11-10 03:56:00,42.9,40.2,30.02,NE,53,0.0,0.0,90,0.00,,---,0.00,VWS V14.01,2013-11-10 11:56:00,
2013-11-10 04:00:00,41.9,39.5,30.04,NE,53,0.0,0.0,91,0.00,,---,0.00,VWS V14.01,2013-11-10 12:00:00,
2013-11-10 04:01:00,42.8,40.1,30.02,NE,53,0.0,0.0,90,0.00,,---,0.00,VWS V14.01,2013-11-10 12:01:00,
2013-11-10 04:06:00,42.7,40.0,30.02,NE,53,0.0,0.0,90,0.00,,---,0.00,VWS V14.01,2013-11-10 12:06:00,
2013-11-10 04:10:00,41.5,38.8,30.04,NE,53,0.0,0.0,90,0.00,,---,0.00,VWS V14.01,2013-11-10 12:10:00,
2013-11-10 04:11:00,42.5,39.8,30.02,NE,53,0.0,0.0,90,0.00,,---,0.00,VWS V14.01,2013-11-10 12:11:00,
2013-11-10 04:16:00,42.4,39.7,30.02,NE,53,0.0,0.0,90,0.00,,---,0.00,VWS V14.01,2013-11-10 12:16:00,
2013-11-10 04:20:00,41.4,39.0,30.04,NE,53,0.0,0.0,91,0.00,,---,0.00,VWS V14.01,2013-11-10 12:20:00,
2013-11-10 04:21:00,42.3,39.6,30.02,NE,53,0.0,0.0,90,0.00,,---,0.00,VWS V14.01,2013-11-10 12:21:00,
2013-11-10 04:26:00,42.2,39.5,30.03,NE,53,0.0,0.0,90,0.00,,---,0.00,VWS V14.01,2013-11-10 12:26:00,
2013-11-10 04:30:00,41.4,39.0,30.03,NE,53,0.0,0.0,91,0.00,,---,0.00,VWS V14.01,2013-11-10 12:30:00,
2013-11-10 04:31:00,42.1,39.4,30.03,NE,53,0.0,0.0,90,0.00,,---,0.00,VWS V14.01,2013-11-10 12:31:00,
2013-11-10 04:35:00,42.0,39.3,30.03,NE,53,0.0,0.0,90,0.00,,---,0.00,VWS V14.01,2013-11-10 12:35:00,
2013-11-10 04:40:00,42.0,39.3,30.03,NE,53,0.0,0.0,90,0.00,,---,0.00,VWS V14.01,2013-11-10 12:40:00,
2013-11-10 04:45:00,42.0,39.3,30.03,NE,53,0.0,0.0,90,0.00,,---,0.00,VWS V14.01,2013-11-10 12:45:00,
2013-11-10 04:50:00,42.0,39.6,30.04,NE,53,0.0,0.0,91,0.00,,---,0.00,VWS V14.01,2013-11-10 12:50:00,
2013-11-10 04:55:00,42.0,39.6,30.04,NE,53,0.0,0.0,91,0.00,,---,0.00,VWS V14.01,2013-11-10 12:55:00,
2013-11-10 05:00:00,41.9,39.5,30.04,NE,53,0.0,0.0,91,0.00,,---,0.00,VWS V14.01,2013-11-10 13:00:00,
2013-11-10 05:05:00,41.7,39.0,30.04,NE,53,0.0,0.0,90,0.00,,---,0.00,VWS V14.01,2013-11-10 13:05:00,
2013-11-10 05:10:00,41.6,38.9,30.04,NE,53,0.0,0.0,90,0.00,,---,0.00,VWS V14.01,2013-11-10 13:10:00,
2013-11-10 05:15:00,41.4,38.7,30.04,NE,53,0.0,0.0,90,0.00,,---,0.00,VWS V14.01,2013-11-10 13:15:00,
2013-11-10 05:20:00,41.4,39.0,30.04,NE,53,0.0,0.0,91,0.00,,---,0.00,VWS V14.01,2013-11-10 13:20:00,
2013-11-10 05:25:00,41.4,39.0,30.03,NE,53,0.0,0.0,91,0.00,,---,0.00,VWS V14.01,2013-11-10 13:25:00,
2013-11-10 05:30:00,41.4,39.0,30.03,NE,53,0.0,0.0,91,0.00,,---,0.00,VWS V14.01,2013-11-10 13:30:00,
2013-11-10 05:35:00,41.5,39.1,30.03,NE,53,0.0,0.0,91,0.00,,---,0.00,VWS V14.01,2013-11-10 13:35:00,
2013-11-10 05:40:00,41.5,39.1,30.03,NE,53,0.0,0.0,91,0.00,,---,0.00,VWS V14.01,2013-11-10 13:40:00,
2013-11-10 05:45:00,41.5,39.1,30.03,NE,53,0.0,0.0,91,0.00,,---,0.00,VWS V14.01,2013-11-10 13:45:00,
2013-11-10 05:50:00,41.4,39.0,30.03,NE,53,0.0,0.0,91,0.00,,---,0.00,VWS V14.01,2013-11-10 13:50:00,
2013-11-10 05:55:00,41.2,38.8,30.03,NE,53,0.0,0.0,91,0.00,,---,0.00,VWS V14.01,2013-11-10 13:55:00,
2013-11-10 06:00:00,41.0,38.6,30.03,NE,53,0.0,0.0,91,0.00,,---,0.00,VWS V14.01,2013-11-10 14:00:00,
2013-11-10 06:05:00,40.9,38.5,30.04,NE,53,0.0,0.0,91,0.00,,---,0.00,VWS V14.01,2013-11-10 14:05:00,
2013-11-10 06:10:00,40.8,38.4,30.04,NE,53,0.0,0.0,91,0.00,,---,0.00,VWS V14.01,2013-11-10 14:10:00,
2013-11-10 06:15:00,40.6,38.2,30.04,NE,53,0.0,0.0,91,0.00,,---,0.00,VWS V14.01,2013-11-10 14:15:00,
2013-11-10 06:20:00,40.5,38.1,30.05,NE,53,0.0,0.0,91,0.00,,---,0.00,VWS V14.01,2013-11-10 14:20:00,
2013-11-10 06:25:00,40.4,38.0,30.06,NE,53,0.0,0.0,91,0.00,,---,0.00,VWS V14.01,2013-11-10 14:25:00,
2013-11-10 06:30:00,40.3,37.9,30.06,ENE,61,0.0,0.0,91,0.00,,---,0.00,VWS V14.01,2013-11-10 14:30:00,
2013-11-10 06:35:00,40.2,37.8,30.06,ENE,61,0.0,0.0,91,0.00,,---,0.00,VWS V14.01,2013-11-10 14:35:00,
2013-11-10 06:40:00,40.1,37.7,30.06,ENE,61,0.0,0.0,91,0.00,,---,0.00,VWS V14.01,2013-11-10 14:40:00,
2013-11-10 06:45:00,40.1,37.7,30.06,ENE,61,0.0,0.0,91,0.00,,---,0.00,VWS V14.01,2013-11-10 14:45:00,
2013-11-10 06:50:00,40.1,37.7,30.06,ENE,61,0.0,0.0,91,0.00,,---,0.00,VWS V14.01,2013-11-10 14:50:00,
2013-11-10 06:55:00,40.0,37.6,30.06,ENE,61,0.0,0.0,91,0.00,,---,0.00,VWS V14.01,2013-11-10 14:55:00,
2013-11-10 07:00:00,40.0,37.6,30.07,ENE,61,0.0,0.0,91,0.00,,---,0.00,VWS V14.01,2013-11-10 15:00:00,
2013-11-10 07:05:00,40.0,37.9,30.07,ENE,61,0.0,0.0,92,0.00,,---,0.00,VWS V14.01,2013-11-10 15:05:00,
2013-11-10 07:10:00,40.2,38.1,30.07,ENE,61,0.0,0.0,92,0.00,,---,0.00,VWS V14.01,2013-11-10 15:10:00,
2013-11-10 07:15:00,40.3,38.2,30.07,ENE,61,0.0,0.0,92,0.00,,---,0.00,VWS V14.01,2013-11-10 15:15:00,
2013-11-10 07:20:00,40.6,38.5,30.08,ENE,61,0.0,0.0,92,0.00,,---,0.00,VWS V14.01,2013-11-10 15:20:00,
2013-11-10 07:25:00,41.0,38.9,30.07,ENE,61,0.0,0.0,92,0.00,,---,0.00,VWS V14.01,2013-11-10 15:25:00,
2013-11-10 07:30:00,41.5,39.3,30.08,ENE,61,0.0,0.0,92,0.00,,---,0.00,VWS V14.01,2013-11-10 15:30:00,
2013-11-10 07:35:00,41.9,40.0,30.08,ENE,61,0.0,0.0,93,0.00,,---,0.00,VWS V14.01,2013-11-10 15:35:00,
2013-11-10 07:40:00,42.2,40.3,30.08,ENE,61,0.0,0.0,93,0.00,,---,0.00,VWS V14.01,2013-11-10 15:40:00,
2013-11-10 07:45:00,42.7,40.8,30.08,ENE,61,0.0,0.0,93,0.00,,---,0.00,VWS V14.01,2013-11-10 15:45:00,
2013-11-10 07:50:00,43.2,41.3,30.08,ENE,61,0.0,0.0,93,0.00,,---,0.00,VWS V14.01,2013-11-10 15:50:00,
2013-11-10 07:55:00,43.9,42.0,30.08,ENE,61,0.0,0.0,93,0.00,,---,0.00,VWS V14.01,2013-11-10 15:55:00,
2013-11-10 08:00:00,44.5,42.6,30.08,ENE,61,0.0,0.0,93,0.00,,---,0.00,VWS V14.01,2013-11-10 16:00:00,
2013-11-10 08:05:00,45.0,43.1,30.08,ENE,61,0.0,0.0,93,0.00,,---,0.00,VWS V14.01,2013-11-10 16:05:00,
2013-11-10 08:10:00,45.6,43.7,30.09,ENE,61,0.0,0.0,93,0.00,,---,0.00,VWS V14.01,2013-11-10 16:10:00,
2013-11-10 08:15:00,46.3,44.1,30.09,ENE,61,0.0,0.0,92,0.00,,---,0.00,VWS V14.01,2013-11-10 16:15:00,
2013-11-10 08:20:00,46.5,44.0,30.08,ENE,61,0.0,0.0,91,0.00,,---,0.00,VWS V14.01,2013-11-10 16:20:00,
2013-11-10 08:25:00,46.9,44.4,30.09,ENE,61,0.0,0.0,91,0.00,,---,0.00,VWS V14.01,2013-11-10 16:25:00,
2013-11-10 08:30:00,47.9,45.4,30.09,ENE,61,0.0,0.0,91,0.00,,---,0.00,VWS V14.01,2013-11-10 16:30:00,
2013-11-10 08:35:00,48.7,45.6,30.08,ENE,61,0.0,0.0,89,0.00,,---,0.00,VWS V14.01,2013-11-10 16:35:00,
2013-11-10 08:40:00,50.0,46.6,30.08,ENE,61,0.0,1.0,88,0.00,,---,0.00,VWS V14.01,2013-11-10 16:40:00,
2013-11-10 08:45:00,51.4,47.0,30.08,ENE,61,0.0,1.0,85,0.00,,---,0.00,VWS V14.01,2013-11-10 16:45:00,
2013-11-10 08:50:00,52.3,47.6,30.08,ENE,61,0.0,1.0,84,0.00,,---,0.00,VWS V14.01,2013-11-10 16:50:00,
2013-11-10 08:55:00,53.0,48.0,30.08,ENE,61,0.0,1.0,83,0.00,,---,0.00,VWS V14.01,2013-11-10 16:55:00,
2013-11-10 09:00:00,53.9,48.2,30.08,ENE,61,0.0,1.0,81,0.00,,---,0.00,VWS V14.01,2013-11-10 17:00:00,
2013-11-10 09:05:00,54.4,48.0,30.08,ENE,62,0.0,1.0,79,0.00,,---,0.00,VWS V14.01,2013-11-10 17:05:00,
2013-11-10 09:10:00,55.1,48.4,30.09,ENE,62,0.0,1.0,78,0.00,,---,0.00,VWS V14.01,2013-11-10 17:10:00,
2013-11-10 09:15:00,55.9,48.5,30.08,ENE,62,0.0,0.0,76,0.00,,---,0.00,VWS V14.01,2013-11-10 17:15:00,
2013-11-10 09:20:00,56.7,48.9,30.08,ENE,62,0.0,1.0,75,0.00,,---,0.00,VWS V14.01,2013-11-10 17:20:00,
2013-11-10 09:25:00,57.4,49.2,30.08,ENE,62,0.0,0.0,74,0.00,,---,0.00,VWS V14.01,2013-11-10 17:25:00,
2013-11-10 09:30:00,58.0,49.0,30.09,ENE,67,0.0,1.0,72,0.00,,---,0.00,VWS V14.01,2013-11-10 17:30:00,
2013-11-10 09:35:00,58.5,48.8,30.08,East,98,0.0,1.0,70,0.00,,---,0.00,VWS V14.01,2013-11-10 17:35:00,
2013-11-10 09:40:00,59.0,49.2,30.09,East,98,0.0,1.0,70,0.00,,---,0.00,VWS V14.01,2013-11-10 17:40:00,
2013-11-10 09:45:00,59.4,48.8,30.08,East,84,0.0,2.0,68,0.00,,---,0.00,VWS V14.01,2013-11-10 17:45:00,
2013-11-10 09:50:00,59.5,49.3,30.09,East,82,3.0,3.0,69,0.00,,---,0.00,VWS V14.01,2013-11-10 17:50:00,
2013-11-10 09:55:00,59.9,49.3,30.09,East,99,0.0,4.0,68,0.00,,---,0.00,VWS V14.01,2013-11-10 17:55:00,
2013-11-10 10:00:00,60.3,49.7,30.09,ENE,75,0.0,4.0,68,0.00,,---,0.00,VWS V14.01,2013-11-10 18:00:00,
2013-11-10 10:05:00,60.4,49.4,30.09,East,86,0.0,3.0,67,0.00,,---,0.00,VWS V14.01,2013-11-10 18:05:00,
2013-11-10 10:10:00,60.7,49.3,30.09,ESE,109,1.0,3.0,66,0.00,,---,0.00,VWS V14.01,2013-11-10 18:10:00,
2013-11-10 10:15:00,61.0,49.2,30.09,ENE,59,0.0,3.0,65,0.00,,---,0.00,VWS V14.01,2013-11-10 18:15:00,
2013-11-10 10:20:00,61.3,49.5,30.09,ENE,76,0.0,3.0,65,0.00,,---,0.00,VWS V14.01,2013-11-10 18:20:00,
2013-11-10 10:25:00,61.6,49.3,30.09,ESE,107,0.0,4.0,64,0.00,,---,0.00,VWS V14.01,2013-11-10 18:25:00,
2013-11-10 10:30:00,61.8,49.5,30.09,East,82,1.0,4.0,64,0.00,,---,0.00,VWS V14.01,2013-11-10 18:30:00,
2013-11-10 10:35:00,62.1,49.8,30.09,NE,46,0.0,2.0,64,0.00,,---,0.00,VWS V14.01,2013-11-10 18:35:00,
2013-11-10 10:40:00,62.2,49.5,30.08,East,90,3.0,4.0,63,0.00,,---,0.00,VWS V14.01,2013-11-10 18:40:00,
2013-11-10 10:45:00,62.5,49.8,30.09,East,96,0.0,3.0,63,0.00,,---,0.00,VWS V14.01,2013-11-10 18:45:00,
2013-11-10 10:50:00,63.0,49.8,30.09,East,82,0.0,3.0,62,0.00,,---,0.00,VWS V14.01,2013-11-10 18:50:00,
2013-11-10 10:55:00,63.4,50.2,30.08,East,82,0.0,1.0,62,0.00,,---,0.00,VWS V14.01,2013-11-10 18:55:00,
2013-11-10 11:00:00,63.6,49.9,30.08,East,95,0.0,2.0,61,0.00,,---,0.00,VWS V14.01,2013-11-10 19:00:00,
2013-11-10 11:05:00,63.9,50.2,30.08,East,95,1.0,1.0,61,0.00,,---,0.00,VWS V14.01,2013-11-10 19:05:00,
2013-11-10 11:10:00,64.0,50.3,30.08,NE,45,0.0,1.0,61,0.00,,---,0.00,VWS V14.01,2013-11-10 19:10:00,
2013-11-10 11:15:00,64.2,50.5,30.08,NE,45,0.0,1.0,61,0.00,,---,0.00,VWS V14.01,2013-11-10 19:15:00,
2013-11-10 11:20:00,64.6,50.4,30.08,ENE,78,0.0,4.0,60,0.00,,---,0.00,VWS V14.01,2013-11-10 19:20:00,
2013-11-10 11:25:00,65.1,50.4,30.08,ENE,78,0.0,0.0,59,0.00,,---,0.00,VWS V14.01,2013-11-10 19:25:00,
2013-11-10 11:30:00,65.5,50.8,30.08,NE,53,0.0,2.0,59,0.00,,---,0.00,VWS V14.01,2013-11-10 19:30:00,
2013-11-10 11:35:00,65.4,50.2,30.08,North,355,2.0,2.0,58,0.00,,---,0.00,VWS V14.01,2013-11-10 19:35:00,
2013-11-10 11:40:00,65.3,50.2,30.07,ENE,66,0.0,2.0,58,0.00,,---,0.00,VWS V14.01,2013-11-10 19:40:00,
2013-11-10 11:45:00,65.2,50.1,30.07,WSW,250,0.0,2.0,58,0.00,,---,0.00,VWS V14.01,2013-11-10 19:45:00,
2013-11-10 11:50:00,65.3,49.7,30.06,NNE,15,0.0,2.0,57,0.00,,---,0.00,VWS V14.01,2013-11-10 19:50:00,
2013-11-10 11:55:00,65.7,49.6,30.06,NE,55,0.0,1.0,56,0.00,,---,0.00,VWS V14.01,2013-11-10 19:55:00,
2013-11-10 12:00:00,65.9,49.8,30.06,ENE,71,0.0,1.0,56,0.00,,---,0.00,VWS V14.01,2013-11-10 20:00:00,
2013-11-10 12:05:00,66.1,50.0,30.06,ENE,73,0.0,0.0,56,0.00,,---,0.00,VWS V14.01,2013-11-10 20:05:00,
2013-11-10 12:10:00,66.1,50.0,30.05,WSW,243,0.0,3.0,56,0.00,,---,0.00,VWS V14.01,2013-11-10 20:10:00,
2013-11-10 12:15:00,66.0,49.9,30.05,ESE,122,0.0,2.0,56,0.00,,---,0.00,VWS V14.01,2013-11-10 20:15:00,
2013-11-10 12:20:00,66.2,49.6,30.05,ESE,108,0.0,2.0,55,0.00,,---,0.00,VWS V14.01,2013-11-10 20:20:00,
2013-11-10 12:25:00,66.5,49.8,30.05,ESE,108,0.0,1.0,55,0.00,,---,0.00,VWS V14.01,2013-11-10 20:25:00,
2013-11-10 12:30:00,66.6,50.0,30.05,ESE,108,0.0,1.0,55,0.00,,---,0.00,VWS V14.01,2013-11-10 20:30:00,
2013-11-10 12:35:00,66.7,49.5,30.05,ESE,109,0.0,2.0,54,0.00,,---,0.00,VWS V14.01,2013-11-10 20:35:00,
2013-11-10 12:40:00,66.8,49.6,30.04,ESE,109,0.0,2.0,54,0.00,,---,0.00,VWS V14.01,2013-11-10 20:40:00,
2013-11-10 12:45:00,66.8,49.6,30.04,NNE,29,1.0,2.0,54,0.00,,---,0.00,VWS V14.01,2013-11-10 20:45:00,
2013-11-10 12:50:00,67.0,48.8,30.04,West,263,0.0,3.0,52,0.00,,---,0.00,VWS V14.01,2013-11-10 20:50:00,
2013-11-10 12:55:00,67.0,49.3,30.04,West,268,0.0,0.0,53,0.00,,---,0.00,VWS V14.01,2013-11-10 20:55:00,
2013-11-10 13:00:00,67.0,48.8,30.03,ESE,118,0.0,1.0,52,0.00,,---,0.00,VWS V14.01,2013-11-10 21:00:00,
2013-11-10 13:05:00,67.2,49.5,30.03,NNE,20,0.0,1.0,53,0.00,,---,0.00,VWS V14.01,2013-11-10 21:05:00,
2013-11-10 13:10:00,67.4,48.7,30.03,West,272,0.0,3.0,51,0.00,,---,0.00,VWS V14.01,2013-11-10 21:10:00,
2013-11-10 13:15:00,67.5,48.8,30.03,West,261,1.0,2.0,51,0.00,,---,0.00,VWS V14.01,2013-11-10 21:15:00,
2013-11-10 13:20:00,67.6,48.3,30.03,North,351,2.0,2.0,50,0.00,,---,0.00,VWS V14.01,2013-11-10 21:20:00,
2013-11-10 13:25:00,67.7,48.4,30.03,NNW,327,0.0,1.0,50,0.00,,---,0.00,VWS V14.01,2013-11-10 21:25:00,
2013-11-10 13:30:00,67.9,48.1,30.03,North,351,0.0,1.0,49,0.00,,---,0.00,VWS V14.01,2013-11-10 21:30:00,
2013-11-10 13:35:00,68.1,47.1,30.03,NNW,337,0.0,2.0,47,0.00,,---,0.00,VWS V14.01,2013-11-10 21:35:00,
2013-11-10 13:40:00,68.3,47.3,30.03,West,263,0.0,3.0,47,0.00,,---,0.00,VWS V14.01,2013-11-10 21:40:00,
2013-11-10 13:45:00,68.5,46.9,30.02,NW,315,1.0,2.0,46,0.00,,---,0.00,VWS V14.01,2013-11-10 21:45:00,
2013-11-10 13:50:00,68.6,47.0,30.02,NW,315,0.0,2.0,46,0.00,,---,0.00,VWS V14.01,2013-11-10 21:50:00,
2013-11-10 13:55:00,68.6,47.6,30.02,NNW,348,0.0,2.0,47,0.00,,---,0.00,VWS V14.01,2013-11-10 21:55:00,
2013-11-10 14:00:00,68.8,44.8,30.03,WNW,291,0.0,2.0,42,0.00,,---,0.00,VWS V14.01,2013-11-10 22:00:00,
2013-11-10 14:05:00,68.9,44.2,30.03,NW,307,0.0,1.0,41,0.00,,---,0.00,VWS V14.01,2013-11-10 22:05:00,
2013-11-10 14:10:00,69.0,45.6,30.03,NW,307,0.0,1.0,43,0.00,,---,0.00,VWS V14.01,2013-11-10 22:10:00,
2013-11-10 14:15:00,69.0,44.3,30.03,SSW,213,0.0,1.0,41,0.00,,---,0.00,VWS V14.01,2013-11-10 22:15:00,
2013-11-10 14:20:00,68.9,43.6,30.03,ESE,118,0.0,5.0,40,0.00,,---,0.00,VWS V14.01,2013-11-10 22:20:00,
2013-11-10 14:25:00,68.9,41.6,30.02,ESE,119,0.0,3.0,37,0.00,,---,0.00,VWS V14.01,2013-11-10 22:25:00,
2013-11-10 14:30:00,68.9,43.0,30.02,WNW,298,0.0,3.0,39,0.00,,---,0.00,VWS V14.01,2013-11-10 22:30:00,
2013-11-10 14:35:00,68.9,41.6,30.02,SE,130,2.0,3.0,37,0.00,,---,0.00,VWS V14.01,2013-11-10 22:35:00,
2013-11-10 14:40:00,68.9,42.3,30.02,ESE,123,0.0,3.0,38,0.00,,---,0.00,VWS V14.01,2013-11-10 22:40:00,
2013-11-10 14:45:00,68.9,45.5,30.02,NE,43,0.0,3.0,43,0.00,,---,0.00,VWS V14.01,2013-11-10 22:45:00,
2013-11-10 14:50:00,69.0,49.6,30.02,NE,41,0.0,3.0,50,0.00,,---,0.00,VWS V14.01,2013-11-10 22:50:00,
2013-11-10 14:55:00,68.8,50.0,30.03,West,268,3.0,6.0,51,0.00,,---,0.00,VWS V14.01,2013-11-10 22:55:00,
2013-11-10 15:00:00,68.5,50.2,30.03,West,271,0.0,6.0,52,0.00,,---,0.00,VWS V14.01,2013-11-10 23:00:00,
2013-11-10 15:05:00,68.3,50.0,30.03,WSW,250,1.0,2.0,52,0.00,,---,0.00,VWS V14.01,2013-11-10 23:05:00,
2013-11-10 15:10:00,68.0,50.2,30.03,WNW,291,0.0,2.0,53,0.00,,---,0.00,VWS V14.01,2013-11-10 23:10:00,
2013-11-10 15:15:00,67.8,50.1,30.03,NNW,331,0.0,1.0,53,0.00,,---,0.00,VWS V14.01,2013-11-10 23:15:00,
2013-11-10 15:20:00,67.6,49.9,30.03,NNW,343,0.0,2.0,53,0.00,,---,0.00,VWS V14.01,2013-11-10 23:20:00,
2013-11-10 15:25:00,67.4,50.2,30.03,NW,309,0.0,2.0,54,0.00,,---,0.00,VWS V14.01,2013-11-10 23:25:00,
2013-11-10 15:30:00,67.2,50.5,30.03,NW,309,0.0,2.0,55,0.00,,---,0.00,VWS V14.01,2013-11-10 23:30:00,
2013-11-10 15:35:00,67.0,50.3,30.03,WNW,297,0.0,1.0,55,0.00,,---,0.00,VWS V14.01,2013-11-10 23:35:00,
2013-11-10 15:40:00,66.8,50.1,30.03,WNW,297,0.0,1.0,55,0.00,,---,0.00,VWS V14.01,2013-11-10 23:40:00,
2013-11-10 15:45:00,66.5,50.3,30.03,West,267,0.0,2.0,56,0.00,,---,0.00,VWS V14.01,2013-11-10 23:45:00,
2013-11-10 15:50:00,66.2,50.5,30.03,West,267,0.0,2.0,57,0.00,,---,0.00,VWS V14.01,2013-11-10 23:50:00,
2013-11-10 15:55:00,65.6,50.0,30.03,West,267,0.0,0.0,57,0.00,,---,0.00,VWS V14.01,2013-11-10 23:55:00,
2013-11-10 16:00:00,65.0,50.3,30.03,West,261,0.0,3.0,59,0.00,,---,0.00,VWS V14.01,2013-11-11 00:00:00,
2013-11-10 16:05:00,64.5,50.3,30.04,West,261,0.0,0.0,60,0.00,,---,0.00,VWS V14.01,2013-11-11 00:05:00,
2013-11-10 16:10:00,64.1,50.0,30.04,WNW,292,0.0,1.0,60,0.00,,---,0.00,VWS V14.01,2013-11-11 00:10:00,
2013-11-10 16:15:00,63.7,49.6,30.04,WNW,292,0.0,0.0,60,0.00,,---,0.00,VWS V14.01,2013-11-11 00:15:00,
2013-11-10 16:20:00,63.3,49.6,30.04,WNW,292,0.0,0.0,61,0.00,,---,0.00,VWS V14.01,2013-11-11 00:20:00,
2013-11-10 16:25:00,62.9,49.7,30.04,WNW,292,0.0,0.0,62,0.00,,---,0.00,VWS V14.01,2013-11-11 00:25:00,
2013-11-10 16:30:00,62.4,49.7,30.04,WNW,292,0.0,0.0,63,0.00,,---,0.00,VWS V14.01,2013-11-11 00:30:00,
2013-11-10 16:35:00,61.8,49.5,30.04,WNW,292,0.0,0.0,64,0.00,,---,0.00,VWS V14.01,2013-11-11 00:35:00,
2013-11-10 16:40:00,61.2,49.3,30.04,WNW,292,0.0,0.0,65,0.00,,---,0.00,VWS V14.01,2013-11-11 00:40:00,
2013-11-10 16:45:00,60.6,48.8,30.04,WNW,292,0.0,0.0,65,0.00,,---,0.00,VWS V14.01,2013-11-11 00:45:00,
2013-11-10 16:50:00,60.0,48.6,30.04,WNW,292,0.0,0.0,66,0.00,,---,0.00,VWS V14.01,2013-11-11 00:50:00,
2013-11-10 16:55:00,59.5,48.5,30.04,WNW,292,0.0,0.0,67,0.00,,---,0.00,VWS V14.01,2013-11-11 00:55:00,
2013-11-10 17:00:00,59.0,48.5,30.05,WNW,292,0.0,0.0,68,0.00,,---,0.00,VWS V14.01,2013-11-11 01:00:00,
2013-11-10 17:05:00,58.6,48.5,30.05,WNW,292,0.0,0.0,69,0.00,,---,0.00,VWS V14.01,2013-11-11 01:05:00,
2013-11-10 17:10:00,58.2,48.1,30.05,WNW,292,0.0,0.0,69,0.00,,---,0.00,VWS V14.01,2013-11-11 01:10:00,
2013-11-10 17:15:00,57.8,48.1,30.05,WNW,292,0.0,0.0,70,0.00,,---,0.00,VWS V14.01,2013-11-11 01:15:00,
2013-11-10 17:20:00,57.3,48.0,30.05,WNW,292,0.0,0.0,71,0.00,,---,0.00,VWS V14.01,2013-11-11 01:20:00,
2013-11-10 17:25:00,56.8,47.9,30.05,WNW,292,0.0,0.0,72,0.00,,---,0.00,VWS V14.01,2013-11-11 01:25:00,
2013-11-10 17:30:00,56.4,47.5,30.05,WNW,292,0.0,0.0,72,0.00,,---,0.00,VWS V14.01,2013-11-11 01:30:00,
2013-11-10 17:35:00,56.1,47.6,30.05,WNW,292,0.0,0.0,73,0.00,,---,0.00,VWS V14.01,2013-11-11 01:35:00,
2013-11-10 17:40:00,55.7,47.5,30.05,WNW,292,0.0,0.0,74,0.00,,---,0.00,VWS V14.01,2013-11-11 01:40:00,
2013-11-10 17:45:00,55.5,47.4,30.05,WNW,292,0.0,0.0,74,0.00,,---,0.00,VWS V14.01,2013-11-11 01:45:00,
2013-11-10 17:50:00,55.2,47.1,30.05,WNW,292,0.0,0.0,74,0.00,,---,0.00,VWS V14.01,2013-11-11 01:50:00,
2013-11-10 17:55:00,54.9,47.1,30.05,WNW,292,0.0,0.0,75,0.00,,---,0.00,VWS V14.01,2013-11-11 01:55:00,
2013-11-10 18:00:00,54.5,47.1,30.05,WNW,292,0.0,0.0,76,0.00,,---,0.00,VWS V14.01,2013-11-11 02:00:00,
2013-11-10 18:05:00,54.1,46.7,30.05,WNW,292,0.0,0.0,76,0.00,,---,0.00,VWS V14.01,2013-11-11 02:05:00,
2013-11-10 18:10:00,53.9,46.9,30.05,WNW,292,0.0,0.0,77,0.00,,---,0.00,VWS V14.01,2013-11-11 02:10:00,
2013-11-10 18:15:00,53.7,47.0,30.06,WNW,292,0.0,0.0,78,0.00,,---,0.00,VWS V14.01,2013-11-11 02:15:00,
2013-11-10 18:20:00,53.5,46.8,30.06,WNW,292,0.0,0.0,78,0.00,,---,0.00,VWS V14.01,2013-11-11 02:20:00,
2013-11-10 18:25:00,53.3,46.6,30.06,WNW,292,0.0,0.0,78,0.00,,---,0.00,VWS V14.01,2013-11-11 02:25:00,
2013-11-10 18:30:00,53.1,46.4,30.06,WNW,292,0.0,0.0,78,0.00,,---,0.00,VWS V14.01,2013-11-11 02:30:00,
2013-11-10 18:35:00,52.9,46.6,30.06,WNW,292,0.0,0.0,79,0.00,,---,0.00,VWS V14.01,2013-11-11 02:35:00,
2013-11-10 18:40:00,52.6,46.3,30.06,WNW,292,0.0,0.0,79,0.00,,---,0.00,VWS V14.01,2013-11-11 02:40:00,
2013-11-10 18:45:00,52.3,46.3,30.06,WNW,292,0.0,0.0,80,0.00,,---,0.00,VWS V14.01,2013-11-11 02:45:00,
2013-11-10 18:49:00,52.1,46.1,30.06,WNW,292,0.0,0.0,80,0.00,,---,0.00,VWS V14.01,2013-11-11 02:49:00,
2013-11-10 18:50:00,50.0,45.4,30.07,WNW,292,0.0,0.0,84,0.00,,---,0.00,VWS V14.01,2013-11-11 02:50:00,
2013-11-10 18:55:00,51.9,45.9,30.06,WNW,292,0.0,0.0,80,0.00,,---,0.00,VWS V14.01,2013-11-11 02:55:00,
2013-11-10 18:59:00,51.6,46.0,30.06,WNW,292,0.0,0.0,81,0.00,,---,0.00,VWS V14.01,2013-11-11 02:59:00,
2013-11-10 19:00:00,49.5,44.9,30.07,WNW,292,0.0,0.0,84,0.00,,---,0.00,VWS V14.01,2013-11-11 03:00:00,
2013-11-10 19:04:00,51.4,46.1,30.06,WNW,292,0.0,0.0,82,0.00,,---,0.00,VWS V14.01,2013-11-11 03:04:00,
2013-11-10 19:09:00,51.3,46.0,30.06,WNW,292,0.0,0.0,82,0.00,,---,0.00,VWS V14.01,2013-11-11 03:09:00,
2013-11-10 19:10:00,49.1,44.8,30.07,WNW,292,0.0,0.0,85,0.00,,---,0.00,VWS V14.01,2013-11-11 03:10:00,
2013-11-10 19:14:00,51.2,45.9,30.06,WNW,292,0.0,0.0,82,0.00,,---,0.00,VWS V14.01,2013-11-11 03:14:00,
2013-11-10 19:19:00,51.0,45.7,30.06,WNW,292,0.0,0.0,82,0.00,,---,0.00,VWS V14.01,2013-11-11 03:19:00,
2013-11-10 19:20:00,48.8,44.5,30.07,WNW,292,0.0,0.0,85,0.00,,---,0.00,VWS V14.01,2013-11-11 03:20:00,
2013-11-10 19:24:00,50.8,45.5,30.06,WNW,292,0.0,0.0,82,0.00,,---,0.00,VWS V14.01,2013-11-11 03:24:00,
2013-11-10 19:29:00,50.6,45.6,30.06,WNW,292,0.0,0.0,83,0.00,,---,0.00,VWS V14.01,2013-11-11 03:29:00,
2013-11-10 19:30:00,48.4,44.1,30.07,WNW,292,0.0,0.0,85,0.00,,---,0.00,VWS V14.01,2013-11-11 03:30:00,
2013-11-10 19:34:00,50.4,45.4,30.06,WNW,292,0.0,0.0,83,0.00,,---,0.00,VWS V14.01,2013-11-11 03:34:00,
2013-11-10 19:39:00,50.2,45.6,30.07,WNW,292,0.0,0.0,84,0.00,,---,0.00,VWS V14.01,2013-11-11 03:39:00,
2013-11-10 19:40:00,48.0,44.0,30.07,WNW,292,0.0,0.0,86,0.00,,---,0.00,VWS V14.01,2013-11-11 03:40:00,
2013-11-10 19:44:00,50.2,45.6,30.07,WNW,292,0.0,0.0,84,0.00,,---,0.00,VWS V14.01,2013-11-11 03:44:00,
2013-11-10 19:49:00,50.1,45.5,30.07,WNW,292,0.0,0.0,84,0.00,,---,0.00,VWS V14.01,2013-11-11 03:49:00,
2013-11-10 19:50:00,47.7,43.7,30.07,WNW,292,0.0,0.0,86,0.00,,---,0.00,VWS V14.01,2013-11-11 03:50:00,
2013-11-10 19:54:00,49.8,45.2,30.07,WNW,292,0.0,0.0,84,0.00,,---,0.00,VWS V14.01,2013-11-11 03:54:00,
2013-11-10 19:59:00,49.6,45.0,30.07,WNW,292,0.0,0.0,84,0.00,,---,0.00,VWS V14.01,2013-11-11 03:59:00,
2013-11-10 20:00:00,47.4,43.4,30.08,WNW,292,0.0,0.0,86,0.00,,---,0.00,VWS V14.01,2013-11-11 04:00:00,
2013-11-10 20:04:00,49.3,44.7,30.07,WNW,292,0.0,0.0,84,0.00,,---,0.00,VWS V14.01,2013-11-11 04:04:00,
2013-11-10 20:09:00,49.2,44.9,30.07,WNW,292,0.0,0.0,85,0.00,,---,0.00,VWS V14.01,2013-11-11 04:09:00,
2013-11-10 20:10:00,47.0,43.3,30.08,WNW,292,0.0,0.0,87,0.00,,---,0.00,VWS V14.01,2013-11-11 04:10:00,
2013-11-10 20:14:00,49.0,44.7,30.07,WNW,292,0.0,0.0,85,0.00,,---,0.00,VWS V14.01,2013-11-11 04:14:00,
2013-11-10 20:19:00,48.8,44.5,30.07,WNW,292,0.0,0.0,85,0.00,,---,0.00,VWS V14.01,2013-11-11 04:19:00,
2013-11-10 20:20:00,46.6,42.9,30.08,WNW,292,0.0,0.0,87,0.00,,---,0.00,VWS V14.01,2013-11-11 04:20:00,
2013-11-10 20:24:00,48.7,44.4,30.07,WNW,292,0.0,0.0,85,0.00,,---,0.00,VWS V14.01,2013-11-11 04:24:00,
2013-11-10 20:29:00,48.5,44.2,30.07,WNW,292,0.0,0.0,85,0.00,,---,0.00,VWS V14.01,2013-11-11 04:29:00,
2013-11-10 20:30:00,46.3,42.7,30.09,WNW,292,0.0,0.0,87,0.00,,---,0.00,VWS V14.01,2013-11-11 04:30:00,
2013-11-10 20:34:00,48.3,44.0,30.07,WNW,292,0.0,0.0,85,0.00,,---,0.00,VWS V14.01,2013-11-11 04:34:00,
2013-11-10 20:39:00,48.1,44.1,30.07,WNW,292,0.0,0.0,86,0.00,,---,0.00,VWS V14.01,2013-11-11 04:39:00,
2013-11-10 20:40:00,46.0,42.7,30.09,WNW,292,0.0,0.0,88,0.00,,---,0.00,VWS V14.01,2013-11-11 04:40:00,
2013-11-10 20:44:00,47.9,43.9,30.07,WNW,292,0.0,0.0,86,0.00,,---,0.00,VWS V14.01,2013-11-11 04:44:00,
2013-11-10 20:49:00,47.7,43.7,30.07,WNW,292,0.0,0.0,86,0.00,,---,0.00,VWS V14.01,2013-11-11 04:49:00,
2013-11-10 20:50:00,45.8,42.5,30.09,WNW,292,0.0,0.0,88,0.00,,---,0.00,VWS V14.01,2013-11-11 04:50:00,
2013-11-10 20:54:00,47.6,43.6,30.07,WNW,292,0.0,0.0,86,0.00,,---,0.00,VWS V14.01,2013-11-11 04:54:00,
2013-11-10 20:59:00,47.4,43.4,30.08,WNW,292,0.0,0.0,86,0.00,,---,0.00,VWS V14.01,2013-11-11 04:59:00,
2013-11-10 21:00:00,45.5,42.2,30.09,WNW,292,0.0,0.0,88,0.00,,---,0.00,VWS V14.01,2013-11-11 05:00:00,
2013-11-10 21:01:00,47.4,43.4,30.08,WNW,292,0.0,0.0,86,0.00,,---,0.00,VWS V14.01,2013-11-11 05:01:00,
2013-11-10 21:07:00,47.2,43.5,30.08,WNW,292,0.0,0.0,87,0.00,,---,0.00,VWS V14.01,2013-11-11 05:07:00,
2013-11-10 21:10:00,45.1,42.1,30.09,WNW,292,0.0,0.0,89,0.00,,---,0.00,VWS V14.01,2013-11-11 05:10:00,
2013-11-10 21:12:00,47.0,43.3,30.08,WNW,292,0.0,0.0,87,0.00,,---,0.00,VWS V14.01,2013-11-11 05:12:00,
2013-11-10 21:17:00,46.8,43.1,30.08,WNW,292,0.0,0.0,87,0.00,,---,0.00,VWS V14.01,2013-11-11 05:17:00,
2013-11-10 21:20:00,45.0,42.0,30.09,WNW,292,0.0,0.0,89,0.00,,---,0.00,VWS V14.01,2013-11-11 05:20:00,
2013-11-10 21:22:00,46.6,42.9,30.08,WNW,292,0.0,0.0,87,0.00,,---,0.00,VWS V14.01,2013-11-11 05:22:00,
2013-11-10 21:27:00,46.4,42.8,30.08,WNW,292,0.0,0.0,87,0.00,,---,0.00,VWS V14.01,2013-11-11 05:27:00,
2013-11-10 21:30:00,44.9,41.9,30.09,WNW,292,0.0,0.0,89,0.00,,---,0.00,VWS V14.01,2013-11-11 05:30:00,
2013-11-10 21:32:00,46.2,42.8,30.09,WNW,292,0.0,0.0,88,0.00,,---,0.00,VWS V14.01,2013-11-11 05:32:00,
2013-11-10 21:37:00,46.1,42.8,30.09,WNW,292,0.0,0.0,88,0.00,,---,0.00,VWS V14.01,2013-11-11 05:37:00,
2013-11-10 21:40:00,44.7,42.0,30.09,WNW,292,0.0,0.0,90,0.00,,---,0.00,VWS V14.01,2013-11-11 05:40:00,
2013-11-10 21:42:00,46.0,42.7,30.09,WNW,292,0.0,0.0,88,0.00,,---,0.00,VWS V14.01,2013-11-11 05:42:00,
2013-11-10 21:47:00,45.9,42.5,30.09,WNW,292,0.0,0.0,88,0.00,,---,0.00,VWS V14.01,2013-11-11 05:47:00,
2013-11-10 21:50:00,44.5,41.5,30.09,WNW,292,0.0,0.0,89,0.00,,---,0.00,VWS V14.01,2013-11-11 05:50:00,
2013-11-10 21:52:00,45.8,42.5,30.09,WNW,292,0.0,0.0,88,0.00,,---,0.00,VWS V14.01,2013-11-11 05:52:00,
2013-11-10 21:57:00,45.6,42.3,30.09,WNW,292,0.0,0.0,88,0.00,,---,0.00,VWS V14.01,2013-11-11 05:57:00,
2013-11-10 22:00:00,44.2,41.2,30.08,WNW,292,0.0,0.0,89,0.00,,---,0.00,VWS V14.01,2013-11-11 06:00:00,
2013-11-10 22:02:00,45.4,42.1,30.09,WNW,292,0.0,0.0,88,0.00,,---,0.00,VWS V14.01,2013-11-11 06:02:00,
2013-11-10 22:07:00,45.2,41.9,30.09,WNW,292,0.0,0.0,88,0.00,,---,0.00,VWS V14.01,2013-11-11 06:07:00,
2013-11-10 22:10:00,43.9,41.2,30.08,WNW,292,0.0,0.0,90,0.00,,---,0.00,VWS V14.01,2013-11-11 06:10:00,
2013-11-10 22:12:00,45.1,42.1,30.09,WNW,292,0.0,0.0,89,0.00,,---,0.00,VWS V14.01,2013-11-11 06:12:00,
2013-11-10 22:17:00,45.0,42.0,30.09,WNW,292,0.0,0.0,89,0.00,,---,0.00,VWS V14.01,2013-11-11 06:17:00,
2013-11-10 22:20:00,43.7,41.0,30.08,WNW,292,0.0,0.0,90,0.00,,---,0.00,VWS V14.01,2013-11-11 06:20:00,
2013-11-10 22:22:00,45.0,42.0,30.09,WNW,292,0.0,0.0,89,0.00,,---,0.00,VWS V14.01,2013-11-11 06:22:00,
2013-11-10 22:27:00,45.0,42.0,30.09,WNW,292,0.0,0.0,89,0.00,,---,0.00,VWS V14.01,2013-11-11 06:27:00,
2013-11-10 22:30:00,43.4,40.7,30.09,WNW,292,0.0,0.0,90,0.00,,---,0.00,VWS V14.01,2013-11-11 06:30:00,
2013-11-10 22:32:00,44.9,41.9,30.09,WNW,292,0.0,0.0,89,0.00,,---,0.00,VWS V14.01,2013-11-11 06:32:00,
2013-11-10 22:37:00,44.8,41.8,30.09,WNW,292,0.0,0.0,89,0.00,,---,0.00,VWS V14.01,2013-11-11 06:37:00,
2013-11-10 22:40:00,43.2,40.5,30.09,WNW,292,0.0,0.0,90,0.00,,---,0.00,VWS V14.01,2013-11-11 06:40:00,
2013-11-10 22:42:00,44.7,42.0,30.09,WNW,292,0.0,0.0,90,0.00,,---,0.00,VWS V14.01,2013-11-11 06:42:00,
2013-11-10 22:47:00,44.6,41.6,30.09,WNW,292,0.0,0.0,89,0.00,,---,0.00,VWS V14.01,2013-11-11 06:47:00,
2013-11-10 22:50:00,43.1,40.4,30.09,WNW,292,0.0,0.0,90,0.00,,---,0.00,VWS V14.01,2013-11-11 06:50:00,
2013-11-10 22:52:00,44.5,41.5,30.09,WNW,292,0.0,0.0,89,0.00,,---,0.00,VWS V14.01,2013-11-11 06:52:00,
2013-11-10 22:57:00,44.3,41.3,30.08,WNW,292,0.0,0.0,89,0.00,,---,0.00,VWS V14.01,2013-11-11 06:57:00,
2013-11-10 23:00:00,43.0,40.6,30.09,WNW,292,0.0,0.0,91,0.00,,---,0.00,VWS V14.01,2013-11-11 07:00:00,
2013-11-10 23:02:00,44.2,41.2,30.08,WNW,292,0.0,0.0,89,0.00,,---,0.00,VWS V14.01,2013-11-11 07:02:00,
2013-11-10 23:07:00,44.0,41.3,30.08,WNW,292,0.0,0.0,90,0.00,,---,0.00,VWS V14.01,2013-11-11 07:07:00,
2013-11-10 23:10:00,42.9,40.5,30.08,WNW,292,0.0,0.0,91,0.00,,---,0.00,VWS V14.01,2013-11-11 07:10:00,
2013-11-10 23:12:00,43.9,41.2,30.08,WNW,292,0.0,0.0,90,0.00,,---,0.00,VWS V14.01,2013-11-11 07:12:00,
2013-11-10 23:17:00,43.8,41.1,30.08,WNW,292,0.0,0.0,90,0.00,,---,0.00,VWS V14.01,2013-11-11 07:17:00,
2013-11-10 23:20:00,42.8,40.4,30.09,WNW,292,0.0,0.0,91,0.00,,---,0.00,VWS V14.01,2013-11-11 07:20:00,
2013-11-10 23:22:00,43.7,41.0,30.08,WNW,292,0.0,0.0,90,0.00,,---,0.00,VWS V14.01,2013-11-11 07:22:00,
2013-11-10 23:27:00,43.5,40.8,30.08,WNW,292,0.0,0.0,90,0.00,,---,0.00,VWS V14.01,2013-11-11 07:27:00,
2013-11-10 23:30:00,42.6,40.2,30.09,WNW,292,0.0,0.0,91,0.00,,---,0.00,VWS V14.01,2013-11-11 07:30:00,
2013-11-10 23:32:00,43.4,40.7,30.09,WNW,292,0.0,0.0,90,0.00,,---,0.00,VWS V14.01,2013-11-11 07:32:00,
2013-11-10 23:37:00,43.3,40.6,30.09,WNW,292,0.0,0.0,90,0.00,,---,0.00,VWS V14.01,2013-11-11 07:37:00,
2013-11-10 23:40:00,42.3,39.9,30.09,WNW,292,0.0,0.0,91,0.00,,---,0.00,VWS V14.01,2013-11-11 07:40:00,
2013-11-10 23:42:00,43.2,40.5,30.09,WNW,292,0.0,0.0,90,0.00,,---,0.00,VWS V14.01,2013-11-11 07:42:00,
2013-11-10 23:47:00,43.1,40.4,30.09,WNW,292,0.0,0.0,90,0.00,,---,0.00,VWS V14.01,2013-11-11 07:47:00,
2013-11-10 23:50:00,42.1,39.7,30.09,WNW,292,0.0,0.0,91,0.00,,---,0.00,VWS V14.01,2013-11-11 07:50:00,
2013-11-10 23:52:00,43.1,40.4,30.09,WNW,292,0.0,0.0,90,0.00,,---,0.00,VWS V14.01,2013-11-11 07:52:00,
2013-11-10 23:57:00,43.0,40.3,30.09,WNW,292,0.0,0.0,90,0.00,,---,0.00,VWS V14.01,2013-11-11 07:57:00,